Stevens Point, WI

4:08 AM CDT on October 16, 2019 (GMT -0500)
Stevens Point Municipal

Weather History for KSTE - August, 2019

Change the Weather History Date:

Thursday, August 29, 2019

  Actual Average Record
Temperature  
Mean Temperature 59 °F -  
Max Temperature 74 °F 76 °F 93 °F (1953)
Min Temperature 44 °F 56 °F 35 °F (1965)
Degree Days  
Heating Degree Days 6    
Growing Degree Days 9 (Base 50)    
Moisture  
Dew Point 51 °F    
Average Humidity 72    
Maximum Humidity 100    
Minimum Humidity 43    
Precipitation  
Precipitation 0.12 in - - ()
Sea Level Pressure  
Sea Level Pressure 29.84 in    
Wind  
Wind Speed 6 mph (West)    
Max Wind Speed 17 mph    
Max Gust Speed 26 mph    
Visibility 10 miles    
Events Rain , Thunderstorm    
Averages and records for this station are not official NWS values.
T = Trace of Precipitation, MM = Missing Value Source: NWS Daily Summary

Daily Weather History Graph

Daily Weather History Graph

Search for Another Location

Airport or City:

Astronomy

Aug. 29, 2019 Rise Set
Actual Time 6:16 AM CDT 7:40 PM CDT
Civil Twilight 5:46 AM CDT 8:10 PM CDT
Nautical Twilight 5:10 AM CDT 8:46 PM CDT
Astronomical Twilight 4:31 AM CDT 9:25 PM CDT
Moon 4:56 AM CDT (8/29) 7:40 PM CDT (8/29)
Length of Visible Light 14h 23m
Length of Day
13h 23m
Waning Crescent, 1% of the Moon is Illuminated
Aug 29
Waning Crescent
Aug 30
New
Sep 5
First Quarter
Sep 13
Full
Sep 21
Last Quarter

Hourly Weather History & Observations

Time (CDT) Temp. Windchill Dew Point Humidity Pressure Visibility Wind Dir Wind Speed Gust Speed Precip Events Conditions
12:15 AM 53.6 °F - 47.7 °F 80% 29.93 in 10.0 mi WSW 4.6 mph - N/A   Clear
2:15 AM 51.8 °F - 48.2 °F 88% 29.92 in 10.0 mi WSW 4.6 mph - N/A   Clear
2:35 AM 50.4 °F - 48.6 °F 94% 29.91 in 10.0 mi Calm Calm - N/A   Clear
2:55 AM 48.0 °F - 48.0 °F 100% 29.91 in 10.0 mi Calm Calm - N/A   Clear
3:15 AM 48.2 °F - 48.2 °F 100% 29.91 in 10.0 mi Calm Calm - N/A   Clear
3:35 AM 47.8 °F - 47.8 °F 100% 29.90 in 10.0 mi Calm Calm - N/A   Clear
3:55 AM 46.4 °F 45.2 °F 46.4 °F 100% 29.90 in 10.0 mi SSW 3.5 mph - N/A   Clear
4:15 AM 48.2 °F - 48.2 °F 100% 29.90 in 10.0 mi Calm Calm - N/A   Clear
4:35 AM 47.3 °F - 47.3 °F 100% 29.89 in 10.0 mi Calm Calm - N/A   Clear
4:55 AM 46.2 °F 45.0 °F 46.2 °F 100% 29.89 in 10.0 mi SW 3.5 mph - N/A   Clear
5:15 AM 46.0 °F - 46.0 °F 100% 29.89 in 10.0 mi Calm Calm - N/A   Clear
5:35 AM 44.8 °F 43.3 °F 44.8 °F 100% 29.89 in 10.0 mi South 3.5 mph - N/A   Clear
5:55 AM 46.9 °F - 46.9 °F 100% 29.88 in 10.0 mi South 4.6 mph - N/A   Clear
6:15 AM 46.6 °F - 46.6 °F 100% 29.87 in 10.0 mi Calm Calm - N/A   Clear
6:35 AM 46.6 °F - 46.6 °F 100% 29.87 in 10.0 mi Calm Calm - N/A   Clear
6:55 AM 46.8 °F - 46.8 °F 100% 29.87 in 10.0 mi Calm Calm - N/A   Clear
7:15 AM 49.5 °F - 49.5 °F 100% 29.86 in 10.0 mi SSW 3.5 mph - N/A   Clear
7:35 AM 52.5 °F - 51.6 °F 97% 29.85 in 10.0 mi SSW 5.8 mph - N/A   Clear
7:55 AM 54.7 °F - 51.4 °F 89% 29.84 in 10.0 mi SSW 9.2 mph - N/A   Clear
8:15 AM 56.8 °F - 51.6 °F 83% 29.82 in 10.0 mi SSW 9.2 mph - N/A   Clear
8:35 AM 58.6 °F - 52.0 °F 79% 29.80 in 10.0 mi South 10.4 mph - N/A   Clear
9:15 AM 62.8 °F - 52.5 °F 69% 29.78 in 10.0 mi SSW 12.7 mph - N/A   Clear
9:35 AM 64.4 °F - 52.2 °F 64% 29.78 in 10.0 mi SSW 13.8 mph 20.7 mph N/A   Clear
9:55 AM 64.8 °F - 52.0 °F 63% 29.76 in 10.0 mi SSW 11.5 mph 17.3 mph N/A   Scattered Clouds
10:15 AM 64.8 °F - 52.7 °F 65% 29.76 in 10.0 mi SSW 11.5 mph 17.3 mph N/A   Clear
10:35 AM 65.1 °F - 53.1 °F 65% 29.76 in 10.0 mi SSW 10.4 mph 17.3 mph N/A   Mostly Cloudy
10:55 AM 64.2 °F - 54.7 °F 71% 29.74 in 10.0 mi South 8.1 mph - N/A Rain Light Rain
11:15 AM 64.6 °F - 56.1 °F 74% 29.72 in 10.0 mi South 10.4 mph - N/A Rain , Thunderstorm Light Thunderstorms and Rain
11:55 AM 66.7 °F - 58.6 °F 75% 29.76 in 10.0 mi NNW 11.5 mph 20.7 mph N/A   Overcast
12:15 PM 62.1 °F - 59.2 °F 90% 29.76 in 2.5 mi WNW 5.8 mph 19.6 mph 0.12 in Rain Light Rain
12:35 PM 64.8 °F - 61.7 °F 90% 29.75 in 10.0 mi WSW 5.8 mph - 0.12 in   Mostly Cloudy
1:15 PM 70.7 °F - 61.9 °F 74% 29.74 in 10.0 mi West 12.7 mph 19.6 mph N/A   Scattered Clouds
1:35 PM 72.7 °F - 58.5 °F 61% 29.75 in 10.0 mi West 17.3 mph 26.5 mph N/A   Scattered Clouds
1:55 PM 73.4 °F - 54.0 °F 50% 29.76 in 10.0 mi West 15.0 mph 24.2 mph N/A   Scattered Clouds
2:15 PM 73.0 °F - 49.1 °F 43% 29.76 in 10.0 mi WNW 9.2 mph 26.5 mph N/A   Scattered Clouds
2:35 PM 72.9 °F - 50.2 °F 45% 29.76 in 10.0 mi West 15.0 mph 20.7 mph N/A   Clear
2:55 PM 73.4 °F - 52.2 °F 47% 29.77 in 10.0 mi NW 11.5 mph 19.6 mph N/A   Scattered Clouds
3:15 PM 74.1 °F - 52.2 °F 46% 29.77 in 10.0 mi WNW 11.5 mph 18.4 mph N/A   Scattered Clouds
3:35 PM 73.8 °F - 52.0 °F 46% 29.78 in 10.0 mi West 13.8 mph 23.0 mph N/A   Scattered Clouds
3:55 PM 73.9 °F - 52.9 °F 48% 29.78 in 10.0 mi West 8.1 mph 23.0 mph N/A   Scattered Clouds
4:15 PM 73.6 °F - 52.3 °F 47% 29.78 in 10.0 mi WNW 9.2 mph 25.3 mph N/A   Mostly Cloudy
4:35 PM 73.2 °F - 51.1 °F 46% 29.79 in 10.0 mi West 9.2 mph 21.9 mph N/A   Scattered Clouds
4:55 PM 73.0 °F - 49.1 °F 43% 29.79 in 10.0 mi WNW 15.0 mph 21.9 mph N/A   Clear
5:15 PM 72.5 °F - 49.5 °F 44% 29.80 in 10.0 mi WNW 13.8 mph 23.0 mph N/A   Clear
5:35 PM 72.5 °F - 48.7 °F 43% 29.81 in 10.0 mi WNW 13.8 mph 19.6 mph N/A   Clear
5:55 PM 71.2 °F - 48.2 °F 44% 29.82 in 10.0 mi West 15.0 mph 21.9 mph N/A   Clear
6:15 PM 70.3 °F - 48.2 °F 45% 29.82 in 10.0 mi WNW 13.8 mph 21.9 mph N/A   Clear
6:35 PM 69.3 °F - 49.1 °F 49% 29.83 in 10.0 mi WNW 9.2 mph 20.7 mph N/A   Clear
6:55 PM 68.2 °F - 50.0 °F 52% 29.84 in 10.0 mi WNW 11.5 mph 17.3 mph N/A   Clear
7:15 PM 67.1 °F - 49.5 °F 53% 29.85 in 10.0 mi WNW 9.2 mph - N/A   Clear
7:35 PM 66.0 °F - 49.3 °F 55% 29.86 in 10.0 mi WNW 5.8 mph - N/A   Clear
7:55 PM 64.8 °F - 49.6 °F 58% 29.87 in 10.0 mi WNW 4.6 mph - N/A   Clear
8:15 PM 63.7 °F - 49.5 °F 60% 29.89 in 10.0 mi WNW 6.9 mph - N/A   Scattered Clouds
8:35 PM 63.0 °F - 49.3 °F 61% 29.89 in 10.0 mi WNW 5.8 mph - N/A   Clear
8:55 PM 61.9 °F - 49.5 °F 64% 29.90 in 10.0 mi WNW 4.6 mph - N/A   Clear
9:15 PM 61.0 °F - 49.5 °F 66% 29.91 in 10.0 mi WNW 4.6 mph - N/A   Clear
9:35 PM 60.3 °F - 49.3 °F 67% 29.92 in 10.0 mi WNW 4.6 mph - N/A   Clear
9:55 PM 59.4 °F - 49.3 °F 69% 29.93 in 10.0 mi WNW 4.6 mph - N/A   Clear
10:15 PM 59.0 °F - 49.5 °F 71% 29.94 in 10.0 mi West 3.5 mph - N/A   Clear
10:35 PM 58.1 °F - 50.0 °F 74% 29.96 in 10.0 mi West 4.6 mph - N/A   Clear
10:55 PM 57.2 °F - 50.0 °F 77% 29.97 in 10.0 mi West 4.6 mph - N/A   Clear
11:35 PM 56.1 °F - 49.5 °F 78% 29.98 in 10.0 mi West 4.6 mph - N/A   Clear
11:55 PM 55.4 °F - 49.3 °F 80% 29.99 in 10.0 mi West 4.6 mph - N/A   Clear